Location: Fort Worth, Tx
(32.7431°N, 97.3695°W)
Time: 15:27:58
(UTC-04:00)

O/OREOS (USA 219) - Pass Details

Date: 25 March 2023
Orbit: 621 x 646 km, 72.0° (Epoch: 22 May)

Event Time Altitude Azimuth Distance (km) Brightness Sun altitude
Rises 07:00:14 0° 160° (SSE) 2,940 ? -18.8°
Reaches altitude 10° 07:03:11 10° 140° (SE) 2,034 ? -18.2°
Maximum altitude 07:06:06 17° 100° (E) 1,627 ? -17.6°
Drops below altitude 10° 07:09:01 10° 60° (ENE) 2,038 ? -17.0°
Sets 07:11:59 0° 40° (NE) 2,948 ? -16.4°
